Weather History for Kendall, FL

Change the Weather History Date:

Monday, October 21, 2013

  Actual Average Record
Temperature  
Mean Temperature 82 °F -  
Max Temperature 90 °F 84 °F 90 °F (2013)
Min Temperature 75 °F 65 °F 46 °F (1989)
Cooling Degree Days 18    
Growing Degree Days 32 (Base 50)    
Moisture  
Dew Point 75 °F    
Average Humidity 82    
Maximum Humidity 100    
Minimum Humidity 61    
Precipitation  
Precipitation 0.00 in - - ()
Sea Level Pressure  
Sea Level Pressure 29.97 in    
Wind  
Wind Speed 2 mph (SSE)    
Max Wind Speed 9 mph    
Max Gust Speed -    
Visibility 10 miles    
Events      
Averages and records for this station are not official NWS values.
T = Trace of Precipitation, MM = Missing Value Source: NWS Daily Summary

Daily Weather History Graph

Daily Weather History Graph

Search for Another Location

Airport:

Trip Planner

Search our weather history database for the weather conditions in past years. The results will help you decide how hot, cold, wet, or windy it might be!

Date:

Astronomy

Oct. 21, 2013 Rise Set
Actual Time 7:23 AM EDT 6:48 PM EDT
Civil Twilight 7:00 AM EDT 7:11 PM EDT
Nautical Twilight 6:33 AM EDT 7:38 PM EDT
Astronomical Twilight 6:06 AM EDT 8:05 PM EDT
Moon 8:54 PM EDT (10/21) 9:43 AM EDT (10/21)
Length of Visible Light 12h 11m
Length of Day
11h 24m
Waning Gibbous, 93% of the Moon is Illuminated
Oct 21
Waning Gibbous
Oct 26
Last Quarter
Nov 3
New
Nov 10
First Quarter
Nov 17
Full

Hourly Weather History & Observations

Time (EDT) Temp. Heat Index Dew Point Humidity Pressure Visibility Wind Dir Wind Speed Gust Speed Precip Events Conditions
12:53 AM 78.1 °F - 75.9 °F 93% 29.96 in 10.0 mi Calm Calm - N/A   Mostly Cloudy
1:53 AM 79.0 °F - 75.9 °F 90% 29.96 in 10.0 mi Calm Calm - N/A   Mostly Cloudy
2:53 AM 77.0 °F - 75.9 °F 96% 29.96 in 10.0 mi Calm Calm - N/A   Clear
3:27 AM 77.0 °F - 75.2 °F 94% 29.95 in 10.0 mi Calm Calm - N/A   Mostly Cloudy
3:36 AM 77.0 °F - 75.2 °F 94% 29.95 in 10.0 mi Calm Calm - N/A   Scattered Clouds
3:53 AM 75.9 °F - 75.0 °F 97% 29.96 in 10.0 mi Calm Calm - N/A   Clear
4:53 AM 77.0 °F - 75.9 °F 96% 29.96 in 10.0 mi Calm Calm - N/A   Clear
5:53 AM 77.0 °F - 75.0 °F 94% 29.97 in 10.0 mi Calm Calm - N/A   Clear
6:53 AM 75.0 °F - 75.0 °F 100% 29.97 in 9.0 mi Calm Calm - N/A   Clear
7:53 AM 75.0 °F - 73.9 °F 96% 29.99 in 10.0 mi Calm Calm - N/A   Clear
8:53 AM 81.0 °F 87.9 °F 77.0 °F 88% 30.00 in 10.0 mi SSE 4.6 mph - N/A   Partly Cloudy
9:53 AM 84.0 °F 91.9 °F 75.0 °F 74% 30.01 in 10.0 mi South 6.9 mph - N/A   Scattered Clouds
10:03 AM 84.2 °F 92.3 °F 75.2 °F 74% 30.01 in 10.0 mi South 6.9 mph - N/A   Mostly Cloudy
10:14 AM 82.4 °F 89.5 °F 75.2 °F 79% 30.02 in 10.0 mi SSE 5.8 mph - N/A   Scattered Clouds
10:53 AM 86.0 °F 96.0 °F 75.9 °F 72% 30.01 in 10.0 mi SSE 5.8 mph - N/A   Scattered Clouds
11:53 AM 87.1 °F 95.4 °F 73.9 °F 65% 30.00 in 10.0 mi SE 8.1 mph - N/A   Mostly Cloudy
12:53 PM 89.1 °F 99.1 °F 75.0 °F 63% 29.98 in 10.0 mi ESE 9.2 mph - N/A   Scattered Clouds
1:53 PM 90.0 °F 100.2 °F 75.0 °F 61% 29.95 in 10.0 mi SSE 8.1 mph - N/A   Mostly Cloudy
2:53 PM 88.0 °F 96.5 °F 73.9 °F 63% 29.93 in 10.0 mi South 6.9 mph - N/A   Overcast
3:53 PM 87.1 °F 95.4 °F 73.9 °F 65% 29.92 in 10.0 mi SE 6.9 mph - N/A   Overcast
4:53 PM 86.0 °F 93.8 °F 73.9 °F 67% 29.92 in 10.0 mi SSE 8.1 mph - N/A   Mostly Cloudy
5:53 PM 84.9 °F 92.1 °F 73.9 °F 69% 29.93 in 10.0 mi SE 6.9 mph - N/A   Overcast
6:53 PM 84.0 °F 91.2 °F 73.9 °F 72% 29.94 in 10.0 mi SE 5.8 mph - N/A   Mostly Cloudy
7:53 PM 82.9 °F 89.4 °F 73.9 °F 74% 29.95 in 10.0 mi SSE 6.9 mph - N/A   Clear
8:53 PM 82.0 °F 88.6 °F 75.0 °F 79% 29.97 in 10.0 mi Calm Calm - N/A   Scattered Clouds
9:53 PM 78.1 °F - 75.0 °F 90% 29.99 in 10.0 mi WNW 6.9 mph - N/A   Overcast
10:53 PM 77.0 °F - 75.0 °F 94% 29.99 in 10.0 mi Calm Calm - N/A   Partly Cloudy
11:53 PM 77.0 °F - 73.9 °F 90% 29.99 in 10.0 mi Calm Calm - N/A   Mostly Cloudy